This demonstration page uses our WeatherBlox Daily Observations layout. Learn more.

Left ArrowRight Arrow

40.92945, -100.16068

Hourly Observations for October 20, 2021

Temp ( °F °C ) Dew Point ( °F °C ) Humidity (%) Winds ( mph kmh ) Pressure ( in mb ) Visibility ( mi km ) Precip ( " mm )
12:15 am 00:15 Cloudy 51 10.5 47 8.2 86 86 NW 20 31 29.92 1013 10 16 N/A
12:35 am 00:35 Cloudy 50 10.2 47 8.2 88 88 NNW 16 26 29.92 1013 10 16 N/A
12:55 am 00:55 Cloudy 50 10 46 8 88 88 NW 21 33 29.93 1014 10 16 N/A
1:15 am 01:15 Cloudy 49 9.5 46 7.7 89 89 NNW 21 33 29.94 1014 10 16 N/A
1:35 am 01:35 Cloudy 49 9.2 46 7.5 89 89 NNW 22 35 29.94 1014 10 16 N/A
1:55 am 01:55 Cloudy 48 8.9 45 7.3 90 90 NNW 15 24 29.95 1014 10 16 N/A
2:15 am 02:15 Cloudy 48 8.7 45 7.2 90 90 NW 21 33 29.98 1015 10 16 N/A
2:35 am 02:35 Cloudy 47 8.2 44 6.8 91 91 NW 20 31 29.99 1016 10 16 N/A
2:55 am 02:55 Cloudy 47 8.1 44 6.6 90 90 NW 20 31 30.00 1016 10 16 N/A
3:15 am 03:15 Cloudy 46 7.8 43 6.2 90 90 NW 18 30 30.00 1016 10 16 N/A
3:35 am 03:35 Cloudy 46 8 43 6.3 89 89 WNW 17 28 30.03 1017 10 16 N/A
3:55 am 03:55 Cloudy 46 7.5 42 5.8 89 89 NW 21 33 30.02 1017 10 16 N/A
4:15 am 04:15 Cloudy 46 7.5 42 5.6 88 88 NW 20 31 30.01 1016 10 16 N/A
4:35 am 04:35 Cloudy 45 7.3 42 5.5 88 88 NW 20 31 30.03 1017 10 16 N/A
4:55 am 04:55 Cloudy 45 7.3 42 5.5 88 88 WNW 22 35 30.04 1017 10 16 N/A
5:15 am 05:15 Cloudy 45 7 41 5 87 87 NW 18 30 30.03 1017 10 16 N/A
5:35 am 05:35 Cloudy 45 7.2 41 5.2 87 87 NW 17 28 30.05 1018 10 16 N/A
5:55 am 05:55 Cloudy 45 7.1 40 4.5 84 84 NW 17 28 30.06 1018 10 16 N/A
6:15 am 06:15 Cloudy 44 6.8 40 4.5 85 85 NW 20 31 30.07 1018 10 16 N/A
6:35 am 06:35 Cloudy 44 6.4 39 4 85 85 WNW 16 26 30.08 1019 10 16 N/A
6:55 am 06:55 Cloudy 43 6.2 39 3.7 84 84 WNW 17 28 30.10 1019 10 16 N/A
7:15 am 07:15 Cloudy 43 6.1 38 3.1 81 81 NW 17 28 30.10 1019 10 16 N/A
7:35 am 07:35 Cloudy 43 6 38 3.1 82 82 NW 22 35 30.10 1019 10 16 N/A
7:55 am 07:55 Cloudy 42 5.5 37 3 84 84 NW 18 30 30.10 1019 10 16 N/A
8:15 am 08:15 Cloudy 42 5.7 38 3.1 84 84 WNW 14 22 30.11 1020 10 16 N/A
8:35 am 08:35 Cloudy 43 6 37 2.8 80 80 NW 22 35 30.10 1019 10 16 N/A
8:55 am 08:55 Cloudy 43 6.1 37 2.6 79 79 NW 17 28 30.12 1020 10 16 N/A
9:15 am 09:15 Cloudy 43 6.1 37 2.5 78 78 NW 20 31 30.13 1020 10 16 N/A
9:35 am 09:35 Cloudy 44 6.5 37 2.5 76 76 NW 20 31 30.13 1020 10 16 N/A
9:55 am 09:55 Cloudy 44 6.8 37 2.6 75 75 NW 17 28 30.14 1021 10 16 N/A
10:15 am 10:15 Cloudy 44 6.7 37 2.5 75 75 NW 20 31 30.14 1021 10 16 N/A
10:35 am 10:35 Cloudy 46 7.7 36 2.3 69 69 NW 18 30 30.13 1020 10 16 N/A
10:55 am 10:55 Cloudy 46 7.5 35 1.9 68 68 NW 23 37 30.13 1020 10 16 N/A
11:15 am 11:15 Cloudy 46 7.8 35 1.7 66 66 NW 25 41 30.15 1021 10 16 N/A
11:35 am 11:35 Cloudy 47 8.3 35 1.4 62 62 NW 23 37 30.15 1021 10 16 N/A
11:55 am 11:55 Cloudy 47 8.6 35 1.4 61 61 NW 23 37 30.14 1021 10 16 N/A
12:15 pm 12:15 Cloudy 49 9.2 35 1.6 59 59 NW 23 37 30.14 1021 10 16 N/A
12:35 pm 12:35 Cloudy 48 8.8 34 0.9 58 58 NW 23 37 30.14 1021 10 16 N/A
12:55 pm 12:55 Cloudy 49 9.2 35 1.4 58 58 NW 20 31 30.14 1021 10 16 N/A
1:15 pm 13:15 Partly Cloudy 50 9.9 34 1.1 55 55 NW 25 41 30.13 1020 10 16 N/A
1:35 pm 13:35 Partly Cloudy 50 10.2 34 0.9 53 53 NW 22 35 30.13 1020 10 16 N/A
1:55 pm 13:55 Mostly Cloudy 51 10.4 33 0.6 51 51 NW 22 35 30.13 1020 10 16 N/A
2:15 pm 14:15 Cloudy 50 10.2 33 0.6 52 52 WNW 23 37 30.13 1020 10 16 N/A
2:35 pm 14:35 Mostly Cloudy 49 9.4 32 0.2 53 53 WNW 23 37 30.13 1020 10 16 N/A
2:55 pm 14:55 Mostly Cloudy 52 11 33 0.8 50 50 NW 25 41 30.11 1020 10 16 N/A
3:15 pm 15:15 Partly Cloudy 51 10.3 33 0.6 51 51 NW 23 37 30.11 1020 10 16 N/A
3:35 pm 15:35 Mostly Cloudy 50 9.9 33 0.6 53 53 NW 24 39 30.11 1020 10 16 N/A
3:55 pm 15:55 Cloudy 48 9.1 33 0.4 55 55 WNW 22 35 30.12 1020 10 16 N/A
4:15 pm 16:15 Cloudy 49 9.6 34 0.9 55 55 NW 24 39 30.11 1020 10 16 N/A
4:35 pm 16:35 Mostly Cloudy 49 9.5 34 0.9 55 55 NW 21 33 30.12 1020 10 16 N/A
4:55 pm 16:55 Partly Cloudy 50 9.9 33 0.6 53 53 WNW 21 33 30.11 1020 10 16 N/A
5:15 pm 17:15 Mostly Cloudy 49 9.5 33 0.5 54 54 NW 21 33 30.12 1020 10 16 N/A
5:35 pm 17:35 Mostly Cloudy 49 9.6 33 0.6 54 54 NW 22 35 30.12 1020 10 16 N/A
5:55 pm 17:55 Mostly Cloudy 49 9.2 33 0.7 56 56 NW 22 35 30.13 1020 10 16 N/A
6:15 pm 18:15 Mostly Cloudy 47 8.6 33 0.7 58 58 NW 17 28 30.13 1020 10 16 N/A
6:35 pm 18:35 Mostly Cloudy 47 8.2 33 0.6 59 59 NW 14 22 30.15 1021 10 16 N/A
6:55 pm 18:55 Mostly Cloudy 46 7.7 33 0.5 61 61 NW 16 26 30.15 1021 10 16 N/A
7:15 pm 19:15 Partly Cloudy 44 6.7 32 0.1 63 63 NNW 10 17 30.16 1021 10 16 N/A
7:35 pm 19:35 Partly Cloudy 42 5.4 33 0.3 70 70 NNW 8 13 30.18 1022 10 16 N/A
7:55 pm 19:55 Partly Cloudy 40 4.6 32 undefined 72 72 N 8 13 30.19 1022 10 16 N/A
8:15 pm 20:15 Clear 40 4.5 32 0.2 74 74 NNW 9 15 30.20 1023 10 16 N/A
8:35 pm 20:35 Clear 39 3.8 32 undefined 77 77 NNW 6 9 30.21 1023 10 16 N/A
8:55 pm 20:55 Clear 37 3 32 undefined 81 81 NW 6 9 30.22 1023 10 16 N/A
9:15 pm 21:15 Clear 37 2.5 31 -0.3 82 82 NNW 7 11 30.23 1024 10 16 N/A
9:35 pm 21:35 Clear 35 1.7 31 -0.4 86 86 NNW 6 9 30.25 1024 10 16 N/A
9:55 pm 21:55 Clear 35 1.5 31 -0.6 86 86 NW 7 11 30.25 1024 10 16 N/A
10:15 pm 22:15 Clear 33 0.5 30 -0.9 90 90 W 9 15 30.27 1025 10 16 N/A
10:35 pm 22:35 Clear 33 0.6 31 -0.7 91 91 W 9 15 30.27 1025 10 16 N/A
10:55 pm 22:55 Clear 33 0.7 31 -0.7 90 90 W 9 15 30.28 1025 10 16 N/A
11:15 pm 23:15 Clear 34 1 31 -0.5 90 90 WNW 8 13 30.27 1025 10 16 N/A
11:35 pm 23:35 Clear 33 0.8 31 -0.5 91 91 WNW 8 13 30.28 1025 10 16 N/A
11:55 pm 23:55 Clear 33 0.7 31 -0.5 92 92 WNW 8 13 30.28 1025 10 16 N/A

Powered by AerisWeather